Minot, ND

2:47 AM CDT on August 31, 2016 (GMT -0500)
Minot International

Weather History for KMOT - July, 2013

Change the Weather History Date:

Wednesday, July 17, 2013

  Actual Average Record
Temperature  
Mean Temperature 68 °F 70 °F  
Max Temperature 74 °F 82 °F 105 °F (1977)
Min Temperature 62 °F 58 °F 37 °F (1915)
Cooling Degree Days 3 6  
Month to date cooling degree days 100 84  
Year to date cooling degree days 174 173  
Since 1 June cooling degree days 164 157  
Growing Degree Days 18 (Base 50)    
Moisture  
Dew Point 57 °F    
Average Humidity 73    
Maximum Humidity 93    
Minimum Humidity 53    
Precipitation  
Precipitation 0.00 in 0.07 in 1.20 in (1927)
Month to date precipitation 3.91 1.50  
Year to date precipitation 16.88 10.47  
Sea Level Pressure  
Sea Level Pressure 30.17 in    
Wind  
Wind Speed 9 mph (NE)    
Max Wind Speed 17 mph    
Max Gust Speed 23 mph    
Visibility 10 miles    
Events      
T = Trace of Precipitation, MM = Missing Value Source: NWS Daily Summary

Daily Weather History Graph

Daily Weather History Graph

Search for Another Location

Airport or City:

Trip Planner

Search our weather history database for the weather conditions in past years. The results will help you decide how hot, cold, wet, or windy it might be!

Date:

Astronomy

Jul. 17, 2013 Rise Set
Actual Time 6:02 AM CDT 9:39 PM CDT
Civil Twilight 5:23 AM CDT 10:18 PM CDT
Nautical Twilight 4:30 AM CDT 11:10 PM CDT
Astronomical Twilight 3:16 AM CDT 12:23 AM CDT
Moon 4:24 PM CDT (7/17) 1:20 AM CDT (7/17)
Length of Visible Light 16h 54m
Length of Day
15h 36m
Waxing Gibbous, 67% of the Moon is Illuminated
Jul 17
Waxing Gibbous
Jul 22
Full
Jul 29
Last Quarter
Aug 6
New
Aug 14
First Quarter

Hourly Weather History & Observations

Time (CDT) Temp. Dew Point Humidity Pressure Visibility Wind Dir Wind Speed Gust Speed Precip Events Conditions
12:54 AM 63.0 °F 57.9 °F 84% 30.22 in 10.0 mi Calm Calm - N/A   Overcast
1:54 AM 63.0 °F 60.1 °F 90% 30.22 in 10.0 mi NNW 4.6 mph - N/A   Overcast
2:54 AM 63.0 °F 60.1 °F 90% 30.22 in 10.0 mi North 4.6 mph - N/A   Overcast
3:54 AM 63.0 °F 59.0 °F 87% 30.21 in 10.0 mi North 5.8 mph - N/A   Overcast
4:54 AM 63.0 °F 57.0 °F 81% 30.22 in 10.0 mi NNE 8.1 mph - N/A   Overcast
5:54 AM 63.0 °F 57.0 °F 81% 30.23 in 10.0 mi NNE 5.8 mph - N/A   Overcast
6:54 AM 64.0 °F 57.9 °F 80% 30.23 in 10.0 mi NE 6.9 mph - N/A   Overcast
7:54 AM 64.9 °F 57.9 °F 78% 30.23 in 10.0 mi NE 8.1 mph - N/A   Mostly Cloudy
8:54 AM 66.0 °F 57.0 °F 73% 30.24 in 10.0 mi ENE 8.1 mph - N/A   Overcast
9:54 AM 68.0 °F 55.9 °F 65% 30.24 in 10.0 mi ENE 8.1 mph - N/A   Overcast
10:54 AM 71.1 °F 57.0 °F 61% 30.23 in 10.0 mi NE 11.5 mph - N/A   Mostly Cloudy
11:54 AM 72.0 °F 55.9 °F 57% 30.21 in 10.0 mi East 15.0 mph - N/A   Mostly Cloudy
12:54 PM 73.0 °F 57.9 °F 59% 30.20 in 10.0 mi East 12.7 mph - N/A   Mostly Cloudy
12:59 PM 73.4 °F 57.2 °F 57% 30.20 in 1.8 mi ENE 11.5 mph - N/A   Haze
1:13 PM 73.4 °F 57.2 °F 57% 30.20 in 10.0 mi East 10.4 mph - N/A   Mostly Cloudy
1:54 PM 71.1 °F 55.9 °F 59% 30.18 in 10.0 mi ENE 11.5 mph - N/A   Partly Cloudy
2:54 PM 71.1 °F 53.1 °F 53% 30.17 in 10.0 mi ENE 9.2 mph - N/A   Overcast
3:54 PM 73.0 °F 55.0 °F 53% 30.16 in 10.0 mi ENE 12.7 mph - N/A   Partly Cloudy
4:54 PM 72.0 °F 55.0 °F 55% 30.17 in 10.0 mi NNE 16.1 mph - N/A   Overcast
5:54 PM 70.0 °F 57.9 °F 65% 30.15 in 10.0 mi NNE 15.0 mph 20.7 mph N/A   Partly Cloudy
6:54 PM 69.1 °F 57.9 °F 68% 30.12 in 10.0 mi NNE 11.5 mph - N/A   Clear
7:54 PM 66.9 °F 59.0 °F 76% 30.10 in 10.0 mi NE 12.7 mph - N/A   Clear
8:54 PM 66.0 °F 57.9 °F 75% 30.07 in 10.0 mi NE 6.9 mph - N/A   Clear
9:54 PM 64.9 °F 57.9 °F 78% 30.05 in 10.0 mi ENE 6.9 mph - N/A   Clear
10:54 PM 64.9 °F 57.9 °F 78% 30.03 in 10.0 mi ENE 6.9 mph - N/A   Mostly Cloudy
11:54 PM 64.9 °F 57.0 °F 75% 30.01 in 10.0 mi East 5.8 mph - N/A   Scattered Clouds